Le nostre stazioni meteo in Italia

Pubblicità
Il mio iltempo24.it
Dunstaffnage, Gran Bretagna (99006): Temperatura & dewpoint: 16.06.2017 21:00:00 - 22.06.2017 21:00:00 (BST)Dunstaffnage, Gran Bretagna (99006): Temperatura 5cm: 16.06.2017 21:00:00 - 22.06.2017 21:00:00 (BST)Dunstaffnage, Gran Bretagna (99006): Temperatura -20cm: 16.06.2017 21:00:00 - 22.06.2017 21:00:00 (BST)Dunstaffnage, Gran Bretagna (99006): velocità del vento: 16.06.2017 21:00:00 - 22.06.2017 21:00:00 (BST)Dunstaffnage, Gran Bretagna (99006): direzione del vento: 16.06.2017 21:00:00 - 22.06.2017 21:00:00 (BST)Dunstaffnage, Gran Bretagna (99006): visibility: 16.06.2017 21:00:00 - 22.06.2017 21:00:00 (BST)Dunstaffnage, Gran Bretagna (99006): precipitazioni: 16.06.2017 21:00:00 - 22.06.2017 21:00:00 (BST)
Data & Tempo tt [°C] td [°C] tt 5cm [°C] tt -20cm [°C] ff [km/h] ff [kn] dd vv [km] rr [mm]
22.06.2017 21:00:00 12,1 11,1 - - 11 6 SSE - 0,8
22.06.2017 20:00:00 12,9 10,5 - - 13 7 SSO - 0,0
22.06.2017 19:00:00 12,3 10,9 - - 9 5 SSO - 0,0
22.06.2017 18:00:00 14,0 11,2 - - 11 6 SSO - 0,0
22.06.2017 17:00:00 14,0 10,5 - - 13 7 SSO - 0,0
22.06.2017 16:00:00 13,9 11,6 - - 18 10 SSO - 0,2
22.06.2017 15:00:00 13,1 11,7 - - 15 8 SSO - 0,0
22.06.2017 14:00:00 13,6 10,9 - - 16 9 SO - 0,0
22.06.2017 13:00:00 14,6 10,5 - - 11 6 SSO - 0,0
22.06.2017 12:00:00 14,5 10,7 - - 5 3 O - 0,0
22.06.2017 11:00:00 14,4 10,7 - - 4 2 O - 0,0
22.06.2017 10:00:00 13,1 11,5 - 15,5 15 8 O 1,2 0,0
22.06.2017 09:00:00 13,0 10,4 - - 16 9 O - 0,0
22.06.2017 08:00:00 12,3 9,8 - - 11 6 O - 0,0
22.06.2017 07:00:00 11,7 10,1 - - 11 6 O - 0,0
22.06.2017 06:00:00 12,0 11,3 - - 13 7 O - 0,0
22.06.2017 05:00:00 12,2 12,0 - - 13 7 O - 0,0
22.06.2017 04:00:00 12,6 12,4 - - 13 7 O - 0,0
22.06.2017 03:00:00 13,1 13,0 - - 11 6 SO - 0,0
22.06.2017 02:00:00 13,2 13,0 - - 8 4 SO - 0,0
22.06.2017 01:00:00 13,1 13,0 - - 9 5 SO - 0,0
22.06.2017 00:00:00 13,5 13,3 - - 11 6 SSO - 0,0
21.06.2017 23:00:00 13,6 13,3 - - 9 5 SSO - 0,2
21.06.2017 22:00:00 13,8 13,5 - - 11 6 SO - 0,0
21.06.2017 21:00:00 14,1 13,8 - - 13 7 OSO - 0,8
21.06.2017 20:00:00 14,4 14,0 - - 13 7 SO - 1,0
21.06.2017 19:00:00 16,2 15,7 - - 9 5 SO - 2,0
21.06.2017 18:00:00 16,6 15,6 - - 9 5 OSO - 2,4
21.06.2017 17:00:00 17,3 16,1 - - 8 4 S - 3,0
21.06.2017 16:00:00 18,5 15,8 - - 11 6 SE - 0,0
21.06.2017 15:00:00 18,9 15,8 - - 11 6 SSE - 0,0
21.06.2017 14:00:00 17,5 16,2 - - 5 3 OSO - 0,0
21.06.2017 13:00:00 19,0 15,7 - - 11 6 E - 0,0
21.06.2017 12:00:00 17,7 14,9 - - 5 3 SSE - 0,2
21.06.2017 11:00:00 18,4 14,4 - - 9 5 E - 0,0
21.06.2017 10:00:00 17,9 13,9 18,3 15,4 16 9 E 2,4 0,0
21.06.2017 09:00:00 17,4 13,5 - - 18 10 E - 0,0
21.06.2017 08:00:00 17,2 13,2 - - 18 10 E - 0,0
21.06.2017 07:00:00 16,4 12,9 - - 15 8 E - 0,0
21.06.2017 06:00:00 16,2 12,8 - - 24 13 E - 0,0
21.06.2017 05:00:00 16,2 12,5 - - 16 9 E - 0,0
21.06.2017 04:00:00 16,5 12,4 - - 16 9 E - 0,0
21.06.2017 03:00:00 16,6 12,1 - - 13 7 E - 0,0
21.06.2017 02:00:00 16,9 12,0 - - 16 9 E - 0,0
21.06.2017 01:00:00 16,9 12,0 - - 15 8 E - 0,0
21.06.2017 00:00:00 16,8 11,4 - - 15 8 E - 0,0
20.06.2017 23:00:00 14,3 11,8 - - 9 5 E - 0,0
20.06.2017 22:00:00 14,9 12,1 - - 2 1 SE - 0,0
20.06.2017 21:00:00 16,4 10,9 - - 2 1 SSO - 0,0
20.06.2017 20:00:00 20,5 11,2 - - 4 2 O - 0,0
20.06.2017 19:00:00 20,3 10,3 - - 8 4 O - 0,0
20.06.2017 18:00:00 19,8 10,3 - - 8 4 O - 0,0
20.06.2017 17:00:00 20,3 10,8 - - 9 5 O - 0,0
20.06.2017 16:00:00 19,5 9,6 - - 11 6 OSO - 0,0
20.06.2017 15:00:00 18,1 11,4 - - 11 6 O - 0,0
20.06.2017 14:00:00 17,0 10,2 - - 11 6 O - 0,0
20.06.2017 13:00:00 16,8 10,9 - - 9 5 O - 0,0
20.06.2017 12:00:00 15,8 9,5 - - 9 5 ONO - 0,0
20.06.2017 11:00:00 13,7 6,8 - - 9 5 NO - 0,0
20.06.2017 10:00:00 13,6 7,3 13,8 14,5 8 4 ONO - 0,0
20.06.2017 09:00:00 12,9 9,4 - - 4 2 NO - 0,0
20.06.2017 08:00:00 12,2 9,4 - - 4 2 NE - 0,0
20.06.2017 07:00:00 10,2 8,8 - - 0 0 N - 0,0
20.06.2017 06:00:00 7,2 6,9 - - 2 1 E - 0,0
20.06.2017 05:00:00 6,0 5,5 - - 2 1 SSO - 0,0
20.06.2017 04:00:00 6,7 5,6 - - 4 2 SO - 0,0
20.06.2017 03:00:00 9,7 7,2 - - 2 1 N - 0,0
20.06.2017 02:00:00 10,7 7,8 - - 15 8 ONO - 0,0
20.06.2017 01:00:00 10,6 7,8 - - 11 6 O - 0,0
20.06.2017 00:00:00 10,9 8,5 - - 13 7 O - 0,0
19.06.2017 23:00:00 11,5 8,2 - - 11 6 O - 0,0
19.06.2017 22:00:00 12,4 7,8 - - 15 8 O - 0,0
19.06.2017 21:00:00 13,7 8,1 - - 15 8 ONO - 0,0
19.06.2017 20:00:00 15,2 9,4 - - 15 8 O - 0,0
19.06.2017 19:00:00 15,5 10,6 - - 22 12 O - 0,0
19.06.2017 18:00:00 17,0 11,9 - - 18 10 O - 0,0
19.06.2017 17:00:00 16,4 11,4 - - 18 10 O - 0,0
19.06.2017 16:00:00 15,7 11,7 - - 15 8 O - 0,0
19.06.2017 15:00:00 16,0 11,9 - - 16 9 O - 0,0
19.06.2017 14:00:00 15,2 12,6 - - 15 8 O - 0,0
19.06.2017 13:00:00 16,9 13,5 - - 11 6 O - 0,0
19.06.2017 12:00:00 14,2 12,5 - - 9 5 OSO - 0,0
19.06.2017 11:00:00 14,0 12,9 - - 11 6 OSO - 0,0
19.06.2017 10:00:00 13,0 12,3 13,7 14,5 13 7 OSO 2,3 0,0
19.06.2017 09:00:00 12,8 12,6 - - 9 5 OSO - 0,0
19.06.2017 08:00:00 13,6 13,5 - - 8 4 SSO - 0,0
19.06.2017 07:00:00 12,7 12,6 - - 2 1 ONO - 0,0
19.06.2017 06:00:00 12,4 12,3 - - 4 2 ONO - 0,0
19.06.2017 05:00:00 12,3 12,2 - - 2 1 ONO - 0,0
19.06.2017 04:00:00 12,4 12,2 - - 2 1 OSO - 0,0
19.06.2017 03:00:00 12,3 12,0 - - 2 1 O - 0,0
19.06.2017 02:00:00 12,4 12,1 - - 0 0 N - 0,0
19.06.2017 01:00:00 12,4 12,2 - - 4 2 O - 0,0
19.06.2017 00:00:00 12,4 12,2 - - 2 1 O - 0,0
18.06.2017 23:00:00 12,4 12,1 - - 4 2 SO - 0,0
18.06.2017 22:00:00 12,4 12,1 - - 2 1 ONO - 0,0
18.06.2017 21:00:00 12,5 12,2 - - 2 1 O - 0,2
18.06.2017 20:00:00 12,4 12,0 - - 4 2 ONO - 0,4
18.06.2017 19:00:00 13,1 12,5 - - 4 2 OSO - 0,8
18.06.2017 18:00:00 13,5 12,9 - - 9 5 SO - 0,2
18.06.2017 17:00:00 13,2 12,6 - - 11 6 OSO - 0,6
18.06.2017 16:00:00 14,1 13,5 - - 11 6 OSO - 0,4
18.06.2017 15:00:00 14,3 13,7 - - 8 4 SO - 0,4
18.06.2017 14:00:00 13,8 12,9 - - 9 5 SSO - 0,0
18.06.2017 13:00:00 14,1 13,1 - - 11 6 OSO - 0,0
18.06.2017 12:00:00 13,7 12,8 - - 9 5 SO - 0,2
18.06.2017 11:00:00 13,5 13,1 - - 8 4 SO - 0,0
18.06.2017 10:00:00 13,1 12,7 14,1 14,2 13 7 SSO 3,1 0,0
18.06.2017 09:00:00 13,4 13,2 - - 13 7 SSO - 0,0
18.06.2017 08:00:00 13,4 13,1 - - 13 7 SSO - 0,0
18.06.2017 07:00:00 13,4 13,2 - - 13 7 SSO - 0,0
18.06.2017 06:00:00 13,1 12,9 - - 13 7 SO - 0,2
18.06.2017 05:00:00 13,3 13,1 - - 15 8 SO - 0,8
18.06.2017 04:00:00 13,6 13,3 - - 15 8 SO - 0,4
18.06.2017 03:00:00 13,6 13,3 - - 11 6 SSO - 0,4
18.06.2017 02:00:00 13,6 13,4 - - 11 6 SSO - 0,6
18.06.2017 01:00:00 13,5 13,3 - - 9 5 SSO - 0,6
18.06.2017 00:00:00 13,6 13,3 - - 13 7 SSO - 0,6
17.06.2017 23:00:00 13,8 13,6 - - 13 7 SSO - 0,6
17.06.2017 22:00:00 14,1 13,8 - - 13 7 SSO 10 1,0
17.06.2017 21:00:00 14,3 14,0 - - 13 7 SO - 0,2
17.06.2017 20:00:00 14,8 14,5 - - 11 6 SO - 0,4
17.06.2017 19:00:00 15,2 14,9 - - 11 6 SO - 0,6
17.06.2017 18:00:00 14,9 14,5 - - 13 7 SSO - 0,8
17.06.2017 17:00:00 15,0 14,7 - - 9 5 SSO - 1,2
17.06.2017 16:00:00 15,0 14,5 - - 13 7 SSO - 1,0
17.06.2017 15:00:00 15,4 15,0 - - 13 7 OSO - 0,0
17.06.2017 14:00:00 15,3 15,1 - - 15 8 SO - 0,2
17.06.2017 13:00:00 14,5 14,2 - - 11 6 OSO - 0,2
17.06.2017 12:00:00 14,2 14,0 - - 2 1 NO - 0,4
17.06.2017 11:00:00 14,6 14,3 - - 9 5 OSO - 0,0
17.06.2017 10:00:00 14,4 14,2 14,4 14,0 8 4 S 2,7 0,2
17.06.2017 09:00:00 13,6 13,4 - - 11 6 NE - 0,0
17.06.2017 08:00:00 13,6 13,4 - - 16 9 SO - 0,2
17.06.2017 07:00:00 13,4 13,2 - - 13 7 OSO - 0,0
17.06.2017 06:00:00 13,0 12,8 - - 9 5 SSO - 0,0
17.06.2017 05:00:00 13,0 12,8 - - 15 8 SO - 0,2
17.06.2017 04:00:00 12,9 12,8 - - 16 9 SO - 0,4
17.06.2017 03:00:00 12,9 12,7 - - 11 6 SSO - 0,4
17.06.2017 02:00:00 12,9 12,7 - - 13 7 SO - 0,2
17.06.2017 01:00:00 13,1 12,9 - - 15 8 SO - 0,4
17.06.2017 00:00:00 13,3 13,1 - - 21 11 SO - 0,0
16.06.2017 23:00:00 13,5 13,3 - - 22 12 SO - 0,0
16.06.2017 22:00:00 13,4 13,0 - - 21 11 SSO - 0,6
16.06.2017 21:00:00 13,1 12,8 - - 15 8 SSO - 0,2

tt = Temperatura
td = dewpoint
tt 5cm = Temperatura 5cm
tt -20cm = Temperatura -20cm
ff = velocità del vento
dd = direzione del vento
vv = visibility
rr = precipitazioni

Stazioni seguenti

WeatherPro
AMSI
MeteoEarth